SCP
9 9 9 9 9 12 16 19 20 18 13 9 7 6 7 7 6 5 5 5 6 6 5 4 3 3 3 4 4 3 3 3 3 2 2 2 2 2 2 1 1 1 1
10 9 9 11 11 12 14 17 20 18 13 9 7 7 7 7 6 5 5 5 5 5 4 3 3 3 3 3 3 3 3 3 3 3 3 2 2 2 2 1 1 1 1
10 9 10 11 12 11 12 15 18 16 12 9 8 7 7 7 6 5 5 5 4 4 3 3 3 3 3 4 4 4 4 4 4 4 3 3 3 3 2 2 2 2 2
9 9 10 10 10 10 11 13 15 13 11 9 8 8 8 7 7 6 5 4 4 3 3 3 3 4 4 5 5 5 5 5 4 4 4 4 3 3 2 2 2 2 2
8 8 10 11 10 9 10 12 13 12 10 10 10 10 9 9 8 6 5 4 4 3 3 3 4 4 4 5 5 6 6 5 5 4 4 3 3 3 2 2 2 2 2
8 8 9 10 9 8 9 11 12 12 11 11 11 10 9 9 8 7 6 6 5 4 4 4 4 4 4 5 5 5 6 6 5 4 4 3 2 2 2 2 2 2 2
7 8 8 8 8 8 8 9 10 10 11 11 12 10 9 8 8 8 8 8 7 6 5 5 5 5 4 4 4 5 5 5 4 4 3 3 2 2 2 2 2 2 2
7 7 7 7 7 8 8 7 8 9 10 11 11 9 8 7 8 10 10 10 10 9 9 7 6 5 5 4 4 4 4 4 4 3 3 3 3 3 3 3 3 3 3
6 7 7 7 7 8 8 7 7 8 9 9 8 7 6 6 7 9 10 11 11 12 12 9 6 5 4 4 4 4 3 3 3 3 3 3 3 3 3 3 3 3 3
6 6 6 6 7 8 7 6 6 7 7 7 6 6 6 6 6 7 8 8 10 12 11 8 6 5 4 4 4 3 3 3 3 3 3 3 3 3 3 3 2 2 2
6 7 6 6 6 7 7 6 5 6 7 7 7 7 7 7 6 6 6 6 7 9 9 8 6 5 4 4 3 3 2 2 2 2 2 2 2 2 2 2 2 2 2
6 6 6 6 6 7 7 6 5 6 7 7 8 9 9 8 8 7 6 6 7 8 8 8 7 5 4 3 3 2 2 2 2 2 2 2 2 2 2 2 1 1 1
4 4 5 6 6 6 7 7 6 5 6 7 9 10 10 10 9 8 7 6 7 7 8 8 6 5 3 3 3 3 3 3 3 2 2 2 2 2 2 2 1 1 1
3 3 4 6 6 6 7 7 6 5 5 6 8 10 10 10 9 8 7 6 6 6 6 6 5 4 3 3 3 3 3 3 2 2 2 2 2 3 2 1 1 1 1
2 3 4 6 7 7 7 7 6 5 4 5 6 7 8 8 7 6 6 5 5 5 5 5 4 4 3 3 3 3 3 2 2 2 2 2 2 2 1 1 1 1 1
3 3 4 6 7 7 7 7 7 5 3 3 4 5 5 5 5 5 5 5 5 4 4 4 4 3 3 2 2 2 3 3 2 2 2 2 1 1 0 0 0 1 1
4 4 5 6 8 7 7 8 8 6 4 3 3 4 4 4 4 4 4 5 5 5 5 5 4 3 2 1 1 2 3 3 3 3 2 2 1 1 1 0 0 0 0
6 6 7 7 7 7 7 7 7 6 4 4 4 4 5 5 5 4 4 5 6 6 6 5 5 4 2 1 1 1 2 3 3 3 2 2 2 1 1 1 1 1 1
8 8 8 7 7 7 7 6 5 4 4 4 5 6 7 7 7 7 6 6 7 7 7 7 6 5 3 1 0 1 2 2 2 2 2 2 2 2 1 1 1 1 1
8 8 7 8 8 8 7 5 4 3 3 3 4 5 8 9 10 10 10 9 9 9 9 8 7 6 4 1 0 0 1 2 2 2 2 2 2 1 1 1 1 2 2
7 6 6 8 9 8 7 6 4 3 2 2 3 3 5 8 10 10 11 10 10 9 8 7 6 5 3 1 0 0 1 1 2 2 2 2 1 1 0 0 1 1 1
6 5 6 8 9 8 7 5 4 3 2 2 2 2 3 4 5 6 6 6 6 5 4 4 4 3 2 1 0 0 0 1 1 1 1 1 0 0 0 0 0 0 0
6 6 6 7 8 7 6 5 4 3 3 2 2 2 2 2 2 2 2 2 2 2 1 1 1 1 1 1 0 0 0 0 1 1 1 0 0 0 0 0 0 0 0
7 6 6 7 7 6 6 5 5 5 4 3 3 2 2 2 2 1 1 1 1 1 1 1 1 1 1 1 0 0 0 0 0 0 0 0 0 0 0 0 0 0 0
7 7 7 7 6 6 5 5 5 6 5 4 3 2 2 2 2 2 1 1 1 0 0 1 1 1 1 1 0 0 0 0 0 0 0 0 0 0 0 0 0 1 1
7 7 7 7 6 5 5 5 5 6 5 4 3 2 2 2 2 2 1 1 1 0 0 0 0 0 0 0 0 0 0 0 0 0 1 1 1 0 0 0 0 1 1
Wind_Speed
6 6 7 7 7 7 6 5 5 5 4 3 4 3 3 3 3 3 4 5 4 4 3 3 3 2 2 2 3 2 2 1 1 0 1 2 3 2 2 2 2 2 3
7 7 6 6 7 7 7 6 5 5 4 3 3 3 3 3 3 3 4 5 4 4 4 4 3 2 2 2 2 1 1 1 2 1 1 1 1 1 3 2 3 3 2
8 8 7 6 7 7 7 6 5 5 4 4 3 3 3 3 4 4 4 4 5 4 3 4 4 3 3 2 2 2 2 1 2 1 1 1 1 1 2 3 2 2 2
8 8 8 7 7 7 7 7 6 5 4 4 4 5 4 4 4 4 4 4 5 5 4 4 4 3 2 3 3 2 1 2 2 1 1 1 0 0 0 1 2 3 3
8 8 9 8 7 7 7 7 6 5 5 4 4 5 4 4 3 4 5 5 4 4 4 4 4 3 2 2 2 2 2 1 2 1 1 2 2 2 1 1 1 1 2
7 8 8 8 8 7 7 7 6 5 5 5 5 5 5 5 5 5 6 4 3 3 4 5 4 3 2 2 2 2 2 1 1 1 2 1 1 2 1 2 2 2 2
5 6 6 6 7 7 6 5 6 5 4 4 4 4 4 4 5 6 5 5 4 3 4 4 4 3 3 3 2 2 2 2 2 2 2 2 2 2 1 1 2 2 2
5 6 6 6 6 6 6 5 6 5 5 4 3 3 4 3 3 4 4 4 3 4 5 4 4 4 4 4 3 3 3 3 3 4 3 3 3 2 2 1 1 2 2
5 5 6 5 5 6 6 5 6 5 4 4 4 3 4 3 3 4 3 3 3 4 6 5 4 4 4 4 3 3 3 3 4 3 3 3 2 2 2 2 2 2 2
6 6 6 5 5 5 6 5 5 5 4 3 3 3 3 3 2 3 3 3 3 3 5 5 4 4 4 4 4 3 4 4 3 3 4 3 2 2 2 2 2 2 2
4 5 6 5 5 5 5 5 5 5 4 4 3 4 3 3 3 2 3 2 3 4 5 5 6 5 5 5 4 4 4 4 4 4 4 3 3 2 2 2 2 2 1
5 5 5 5 5 5 4 4 4 4 4 4 4 4 4 4 3 3 3 3 3 3 4 4 5 5 5 4 4 5 4 4 4 4 4 4 3 3 3 3 3 2 2
5 5 5 5 5 4 4 4 4 4 3 4 4 4 4 3 3 3 3 3 3 3 3 4 4 4 4 4 4 4 4 4 4 4 3 3 3 3 3 3 3 3 3
4 5 4 5 4 4 4 3 3 3 3 3 3 3 3 3 3 3 3 3 3 3 3 3 4 4 3 3 3 3 3 4 3 3 2 3 3 4 3 4 3 3 3
4 4 4 4 4 4 3 3 3 3 3 3 3 3 3 3 3 2 2 2 2 3 3 3 3 3 3 3 3 3 4 3 3 3 3 3 3 3 3 4 3 3 3
3 3 3 4 3 3 3 3 3 3 3 3 2 3 3 3 2 2 2 2 2 1 2 2 3 3 3 2 1 2 2 3 3 3 3 4 4 4 4 5 4 4 3
4 3 3 3 3 3 3 3 3 3 3 3 2 2 3 3 3 2 2 2 2 2 1 2 2 2 2 2 2 2 3 3 3 3 3 5 5 4 3 4 5 5 6
4 3 3 3 3 3 3 2 2 3 3 3 2 2 2 2 2 2 2 2 1 1 2 2 3 3 3 4 4 4 4 4 4 4 4 4 3 4 3 3 4 4 4
4 3 3 2 2 2 2 2 2 2 2 3 2 2 2 2 2 2 2 1 1 1 2 2 3 3 3 5 5 4 3 3 5 5 5 5 5 5 4 4 4 4 4
4 3 3 2 2 1 2 2 1 2 2 2 2 2 2 2 2 2 2 1 1 2 2 2 2 3 3 5 6 5 4 4 4 4 4 5 5 5 5 4 4 4 4
3 3 2 2 1 1 1 1 1 1 1 1 1 1 1 1 1 1 1 1 2 2 3 3 2 3 3 4 6 7 4 4 4 4 3 2 3 4 5 5 4 5 4
2 2 2 1 1 1 1 1 2 1 1 1 1 1 1 2 2 1 1 2 2 3 3 2 2 2 3 4 6 8 8 6 4 4 2 2 4 4 5 5 6 6 5
1 1 1 1 1 1 1 1 2 2 2 1 1 1 2 2 2 3 3 3 2 3 3 3 3 3 2 3 5 7 8 8 5 3 2 2 4 4 5 8 8 6 4
2 1 1 1 1 1 2 2 2 2 2 2 2 2 2 3 2 2 3 3 3 3 3 3 3 3 2 2 2 3 3 4 4 3 2 3 5 5 5 5 5 5 5
2 2 2 2 2 2 2 2 2 1 2 2 2 3 4 4 3 3 3 4 3 3 3 3 3 3 3 2 3 3 3 3 3 2 3 3 3 3 4 4 4 4 4
2 2 3 2 2 2 2 2 2 2 2 3 3 3 4 3 4 4 3 3 4 3 4 4 4 3 3 3 4 4 4 4 4 3 4 4 4 4 5 4 4 4 5
Wind_Direction
158 144 141 140 136 132 137 143 147 146 150 159 170 168 167 162 151 149 151 151 156 153 156 143 151 167 155 149 146 149 168 184 165 251 237 231 207 180 181 193 186 192 182
153 140 138 142 145 147 151 155 155 153 163 164 171 167 166 165 154 148 148 152 154 161 167 157 159 157 154 158 160 149 177 195 186 214 215 221 202 222 209 191 203 203 193
162 154 157 160 157 157 161 165 160 158 167 159 161 158 159 160 152 151 156 161 166 169 164 159 160 167 168 158 176 174 196 216 204 201 256 250 202 215 209 214 207 185 211
167 164 167 170 168 162 163 157 156 159 164 162 167 173 176 173 162 160 158 165 167 168 167 159 163 171 169 162 186 175 213 217 236 197 209 250 2 230 243 254 215 199 211
172 169 174 175 169 162 160 156 157 167 171 181 180 183 177 172 159 154 152 163 167 172 167 156 152 159 170 160 170 156 200 217 245 249 235 237 234 236 216 245 232 232 225
171 167 174 171 165 164 160 156 158 169 174 182 185 192 187 179 166 163 160 166 165 172 170 162 156 164 172 170 173 173 195 219 252 273 277 254 242 238 229 238 230 231 233
165 166 171 163 155 152 147 154 158 165 174 179 184 190 192 184 175 169 170 174 170 173 173 168 164 173 179 184 176 191 210 213 229 255 269 274 274 273 261 243 255 266 267
164 163 160 152 153 151 144 151 155 167 173 175 180 175 177 183 181 177 178 179 174 171 161 165 171 179 181 192 184 201 212 211 223 242 254 271 275 278 272 249 256 274 270
138 144 140 136 140 147 149 158 154 157 166 169 170 174 171 180 179 171 186 176 169 163 159 173 180 186 192 197 192 207 222 207 216 235 240 248 261 266 274 258 235 239 265
140 136 129 132 137 144 147 154 151 151 152 159 161 149 142 167 174 166 170 170 174 160 159 173 187 196 203 205 210 210 220 221 223 232 242 246 253 258 261 257 258 246 244
127 131 129 134 139 144 150 152 148 141 143 149 140 130 140 150 154 152 164 175 173 171 171 182 191 199 205 206 210 223 226 226 226 237 241 242 262 269 278 272 264 260 251
117 120 122 131 145 148 149 141 139 144 145 141 138 138 140 143 149 160 165 175 183 186 187 191 191 202 207 203 207 222 227 229 230 236 239 244 250 250 266 277 276 271 261
115 119 123 133 137 134 132 137 140 139 145 140 138 137 144 148 154 162 170 173 185 199 203 195 198 211 213 205 206 218 226 230 233 230 232 239 250 257 257 261 265 266 265
126 127 122 115 116 119 119 126 127 133 139 135 138 138 147 150 160 170 175 188 195 201 210 210 206 214 219 220 216 221 229 234 237 236 233 239 242 250 258 261 260 266 269
118 117 117 112 117 124 122 125 124 121 127 142 147 148 146 143 153 169 180 195 212 213 206 211 215 217 220 229 218 226 235 232 239 242 235 241 245 251 254 266 273 275 273
84 100 114 122 123 125 132 130 133 138 138 142 147 147 156 165 169 171 168 181 208 222 205 213 225 226 237 214 207 226 246 237 230 237 240 241 234 230 231 240 245 252 259
53 64 81 95 111 127 134 143 145 143 146 151 159 164 165 168 175 185 179 194 202 212 219 220 221 225 210 183 202 230 236 248 239 237 240 251 246 227 225 231 238 241 246
50 62 68 79 99 115 123 135 155 152 156 159 163 167 168 169 169 183 188 195 206 217 229 233 222 220 220 207 212 222 230 243 247 246 243 248 249 253 247 248 244 242 247
47 54 64 75 93 109 132 144 146 153 172 179 181 185 192 192 193 196 199 209 213 231 240 237 228 223 219 211 214 219 235 241 247 246 241 237 237 232 234 244 250 253 255
49 47 57 67 80 113 145 168 178 173 191 199 197 189 198 199 204 208 218 223 226 243 251 247 237 225 221 214 214 222 247 245 252 252 243 239 234 220 218 233 244 253 263
53 46 46 52 56 107 132 172 199 203 216 208 172 162 168 191 203 197 207 217 235 245 249 251 239 230 226 218 216 224 248 256 257 253 247 238 191 204 221 234 243 243 262
29 40 31 15 13 146 156 187 211 212 205 188 181 191 191 220 216 192 211 230 235 238 239 241 252 248 226 221 217 222 234 253 268 265 260 230 194 214 232 237 240 245 257
355 351 282 275 275 233 198 215 235 227 208 186 198 222 229 234 216 205 215 230 235 242 248 245 251 249 233 214 209 216 234 249 256 274 276 243 228 237 241 239 240 242 246
346 330 290 256 256 263 234 226 231 234 218 191 197 223 235 244 232 222 223 229 235 242 252 257 258 258 244 221 206 211 230 244 250 259 258 235 231 246 252 248 237 232 237
336 316 296 276 260 253 245 238 226 244 229 212 220 229 231 230 229 234 244 243 245 240 244 258 267 269 263 244 238 241 243 244 246 243 248 243 231 234 237 233 229 231 230
326 324 307 285 271 262 262 249 228 226 231 227 231 238 240 230 226 227 237 257 248 231 237 246 251 262 243 217 226 242 253 250 230 221 242 242 242 242 244 241 237 230 230